Westerly, RI

1:06 PM EDT on June 22, 2018 (GMT -0400)
Westerly State

Weather History for KWST - November, 2017

Change the Weather History Date:

Wednesday, November 22, 2017

  Actual Average (KGON) Record (KGON)
Temperature  
Mean Temperature 47 °F -  
Max Temperature 55 °F 47 °F 62 °F (1963)
Min Temperature 37 °F 31 °F 14 °F (1987)
Degree Days  
Heating Degree Days 18    
Moisture  
Dew Point 50 °F    
Average Humidity 94    
Maximum Humidity 100    
Minimum Humidity 65    
Precipitation  
Precipitation 1.32 in - - ()
Sea Level Pressure  
Sea Level Pressure 29.90 in    
Wind  
Wind Speed 5 mph (SW)    
Max Wind Speed 14 mph    
Max Gust Speed 23 mph    
Visibility 5 miles    
Events Rain    
Averages and records for this station are not official NWS values.
T = Trace of Precipitation, MM = Missing Value Source: NWS Daily Summary

Daily Weather History Graph

Daily Weather History Graph

Search for Another Location

Airport or City:

Astronomy

Nov. 22, 2017 Rise Set
Actual Time 6:44 AM EST 4:22 PM EST
Civil Twilight 6:13 AM EST 4:52 PM EST
Nautical Twilight 5:39 AM EST 5:26 PM EST
Astronomical Twilight 5:07 AM EST 5:59 PM EST
Moon 10:01 AM EST 7:52 PM EST
Length of Visible Light 10h 38m
Length of Day
9h 38m
Waxing Crescent, 15% of the Moon is Illuminated
Nov 22
Waxing Crescent
Nov 26
First Quarter
Dec 3
Full
Dec 10
Last Quarter
Dec 18
New

Hourly Weather History & Observations

Time (EST) Temp. Windchill Dew Point Humidity Pressure Visibility Wind Dir Wind Speed Gust Speed Precip Events Conditions
12:53 AM 52.0 °F - 50.0 °F 93% 30.04 in 8.0 mi SW 4.6 mph - N/A   Mostly Cloudy
1:53 AM 55.0 °F - 51.1 °F 86% 30.03 in 9.0 mi SW 5.8 mph - N/A   Overcast
2:53 AM 54.0 °F - 53.1 °F 97% 30.02 in 5.0 mi Calm Calm - 0.02 in Rain Light Rain
3:46 AM 53.1 °F - 53.1 °F 100% 30.01 in 2.5 mi Calm Calm - 0.03 in Rain Light Rain
3:53 AM 53.1 °F - 53.1 °F 100% 30.01 in 2.0 mi Calm Calm - 0.05 in Rain Rain
4:04 AM 55.0 °F - 54.0 °F 96% 30.00 in 5.0 mi Variable 3.5 mph - 0.01 in Rain Light Rain
4:40 AM 54.0 °F - 54.0 °F 100% 29.99 in 5.0 mi Calm Calm - 0.02 in Rain Light Rain
4:53 AM 55.0 °F - 55.0 °F 100% 29.98 in 8.0 mi Calm Calm - 0.02 in Rain Light Rain
5:32 AM 55.0 °F - 55.0 °F 100% 29.96 in 2.0 mi WSW 5.8 mph - 0.07 in Rain Rain
5:45 AM 55.0 °F - 54.0 °F 96% 29.95 in 1.2 mi WSW 5.8 mph - 0.17 in Rain Heavy Rain
5:53 AM 55.0 °F - 54.0 °F 96% 29.95 in 1.5 mi SSW 8.1 mph - 0.23 in Rain Heavy Rain
6:07 AM 55.0 °F - 54.0 °F 96% 29.95 in 3.0 mi SW 4.6 mph - 0.04 in Rain Rain
6:26 AM 55.0 °F - 55.0 °F 100% 29.94 in 2.5 mi SW 4.6 mph - 0.09 in Rain Light Rain
6:35 AM 55.0 °F - 55.0 °F 100% 29.95 in 3.0 mi SSW 6.9 mph - 0.10 in Rain Light Rain
6:51 AM 55.4 °F - 53.6 °F 94% 29.95 in 2.5 mi SW 6.9 mph - 0.15 in Rain Rain
6:53 AM 55.0 °F - 54.0 °F 96% 29.95 in 2.5 mi SW 8.1 mph - 0.16 in Rain Rain
7:22 AM 54.0 °F - 54.0 °F 100% 29.94 in 1.8 mi SW 4.6 mph - 0.09 in Rain Rain
7:41 AM 54.0 °F - 54.0 °F 100% 29.94 in 2.0 mi SSW 4.6 mph - 0.15 in Rain Light Rain
7:50 AM 53.6 °F - 53.6 °F 100% 29.93 in 1.2 mi Calm Calm - 0.18 in Rain Rain
7:53 AM 54.0 °F - 54.0 °F 100% 29.93 in 1.2 mi Calm Calm - 0.19 in Rain Rain
8:01 AM 54.0 °F - 54.0 °F 100% 29.93 in 3.0 mi South 3.5 mph - 0.01 in Rain Light Rain
8:12 AM 54.0 °F - 54.0 °F 100% 29.93 in 1.8 mi South 3.5 mph - 0.04 in Rain Rain
8:43 AM 55.0 °F - 55.0 °F 100% 29.93 in 3.0 mi South 5.8 mph - 0.13 in Rain Light Rain
8:50 AM 55.4 °F - 55.4 °F 100% 29.93 in 3.0 mi South 4.6 mph - 0.14 in Rain Rain
8:53 AM 55.0 °F - 55.0 °F 100% 29.92 in 2.5 mi South 4.6 mph - 0.15 in Rain Rain
9:25 AM 55.0 °F - 55.0 °F 100% 29.92 in 1.8 mi SE 4.6 mph - 0.09 in Rain Rain
9:32 AM 55.0 °F - 55.0 °F 100% 29.91 in 2.5 mi East 3.5 mph - 0.10 in Rain Light Rain
9:53 AM 55.0 °F - 55.0 °F 100% 29.91 in 1.8 mi SE 5.8 mph - 0.16 in Rain Rain
10:04 AM 55.0 °F - 55.0 °F 100% 29.90 in 2.0 mi SSE 5.8 mph - 0.02 in Rain Rain
10:14 AM 55.0 °F - 55.0 °F 100% 29.90 in 2.0 mi SE 4.6 mph - 0.05 in Rain Rain
10:53 AM 55.0 °F - 55.0 °F 100% 29.86 in 2.5 mi SE 8.1 mph - 0.14 in Rain Light Rain
11:03 AM 55.0 °F - 55.0 °F 100% 29.86 in 3.0 mi SSE 6.9 mph - 0.01 in Rain Light Rain
11:10 AM 55.0 °F - 55.0 °F 100% 29.86 in 4.0 mi SSE 6.9 mph - 0.01 in Rain Light Rain
11:27 AM 55.0 °F - 55.0 °F 100% 29.85 in 4.0 mi SSE 6.9 mph - 0.02 in Rain Light Rain
11:40 AM 55.0 °F - 55.0 °F 100% 29.84 in 4.0 mi SSE 6.9 mph - 0.04 in Rain Light Rain
11:53 AM 55.0 °F - 55.0 °F 100% 29.84 in 4.0 mi South 9.2 mph - 0.05 in Rain Light Rain
12:11 PM 55.0 °F - 55.0 °F 100% 29.83 in 2.5 mi South 8.1 mph - 0.02 in Rain Light Rain
12:20 PM 55.0 °F - 55.0 °F 100% 29.82 in 4.0 mi South 6.9 mph - 0.03 in Rain Light Rain
12:53 PM 55.0 °F - 55.0 °F 100% 29.80 in 7.0 mi SSE 8.1 mph - 0.05 in Rain Light Rain
1:18 PM 55.0 °F - 55.0 °F 100% 29.80 in 1.8 mi Variable 6.9 mph - 0.02 in Rain Light Rain
1:30 PM 53.1 °F - 53.1 °F 100% 29.80 in 2.0 mi NW 10.4 mph 17.3 mph 0.04 in Rain Light Rain
1:43 PM 52.0 °F - 51.1 °F 97% 29.80 in 3.0 mi NW 9.2 mph - 0.04 in   Overcast
1:53 PM 52.0 °F - 51.1 °F 97% 29.80 in 7.0 mi NW 10.4 mph - 0.04 in   Overcast
2:11 PM 51.1 °F - 50.0 °F 96% 29.80 in 1.8 mi NW 11.5 mph 18.4 mph 0.01 in Rain Light Rain
2:20 PM 50.0 °F - 48.9 °F 96% 29.81 in 1.5 mi NW 9.2 mph 18.4 mph 0.01 in Rain Light Rain
2:28 PM 50.0 °F - 48.9 °F 96% 29.80 in 3.0 mi NW 10.4 mph 18.4 mph 0.02 in Rain Light Rain
2:53 PM 50.0 °F - 46.9 °F 89% 29.80 in 8.0 mi North 12.7 mph 23.0 mph 0.03 in Rain Light Rain
3:40 PM 48.9 °F - 48.0 °F 97% 29.81 in 6.0 mi NNW 8.1 mph - 0.02 in Rain Light Rain
3:53 PM 48.9 °F - 46.9 °F 93% 29.81 in 10.0 mi Variable 6.9 mph 17.3 mph 0.02 in   Overcast
4:19 PM 48.0 °F - 45.0 °F 89% 29.82 in 10.0 mi NW 10.4 mph 17.3 mph 0.01 in   Overcast
4:53 PM 46.9 °F - 43.0 °F 86% 29.84 in 10.0 mi NW 11.5 mph 19.6 mph 0.01 in   Overcast
5:49 PM 44.6 °F 39.2 °F 39.2 °F 81% 29.86 in 10.0 mi NW 10.4 mph 23.0 mph N/A   Partly Cloudy
5:53 PM 44.1 °F 38.6 °F 39.0 °F 82% 29.87 in 10.0 mi NW 10.4 mph 20.7 mph N/A   Partly Cloudy
6:53 PM 43.0 °F 37.2 °F 37.0 °F 80% 29.89 in 10.0 mi NW 10.4 mph 20.7 mph N/A   Clear
7:53 PM 42.1 °F 34.9 °F 33.1 °F 70% 29.91 in 10.0 mi NW 13.8 mph 23.0 mph N/A   Partly Cloudy
8:53 PM 41.0 °F 35.2 °F 30.0 °F 65% 29.95 in 10.0 mi NW 9.2 mph 21.9 mph N/A   Clear
9:53 PM 39.0 °F 35.7 °F 30.0 °F 70% 29.96 in 10.0 mi Variable 4.6 mph - N/A   Scattered Clouds
10:53 PM 39.0 °F 36.8 °F 28.9 °F 67% 29.98 in 10.0 mi WNW 3.5 mph - N/A   Overcast
11:53 PM 37.9 °F 35.5 °F 28.0 °F 68% 29.99 in 10.0 mi WNW 3.5 mph - N/A   Partly Cloudy